フィンレー彗星

15P/Finlay (2021)

English version
Home page
Updated on September 18, 2021

---------------------------------------------------------------------

・ プロフィール

・ 写真集

・ 軌道要素

Epoch 2021 July 5.0 TT = JDT 2459400.5
T 2021 July 13.47376 TT                                 Rudenko
q   0.9919894            (2000.0)            P               Q
n   0.15015550     Peri.  347.82378     +0.99928827     -0.02520988
a   3.5057038      Node    13.71416     +0.03587612     +0.86500468
e   0.7170356      Incl.    6.79755     -0.01165581     +0.50113009
P   6.56
From 1330 observations 2008 Apr. 27-2021 June 27, mean residual 0".8.
     Nongravitational parameters A1 = +0.23, A2 = -0.0233.

・ 星図

・ 光度変化

        m1 =  9.5 + 5 logΔ + 30.0 log r(t - 20)  [   , 20]  (              〜2021年 8月 2日)
        m1 =  9.4 + 5 logΔ + 25.0 log r(t - 20)  [ 20,145]  (2021年 8月 2日〜2021年12月 5日)
        m1 = 13.2 + 5 logΔ + 10.0 log r          [145,   ]  (2021年12月 5日〜              )

---------------------------------------------------------------------

軌道要素はM.P.E.C. 2021-N06に掲載されたものです。
星図はステラナビゲータ Ver.10 (アストロアーツ) で作成したものです。
光度グラフはComet for Windowsで作成したものです。

---------------------------------------------------------------------

Copyright(C) Seiichi Yoshida (comet@aerith.net). All rights reserved.